User: anonymous   Login
Location: Unspecified
(0.0000°N, 0.0000°E)
Time: 10:32:58
(UTC+00:00)
Language:

NOSS 8 (H) - Orbit

View from above orbital plane
View from above orbital plane
View from above satellite
View from above satellite

Ground track
Ground track

The orbit data is extracted from the following two-line orbital elements,

1 18025U 87043H   18213.89283595 0.00000700  00000-0  82550-4 0    06
2 18025  63.3092 133.2316 0897637  48.4005 311.5995 13.44918787    06
Epoch (UTC): 01 August 2018 21:25:41
Eccentricity: 0.0897637
inclination: 63.3092°
perigee height: 420 km
apogee height: 1761 km
right ascension of ascending node: 133.2316°
argument of perigee: 48.4005°
revolutions per day: 13.44918787
mean anomaly at epoch: 311.5995°
orbit number at epoch: 0

The dashed part of the orbit path shows where the satellite is in the earth's shadow,  

DLR